{"data":{"norad_id":61230,"epoch":"2026-05-25T04:38:29.408352Z","epoch_age_seconds":58084,"freshness":"FRESH","line1":"1 61230U 24173D   26145.19339593  .00014586  00000+0  51478-3 0  9990","line2":"2 61230  97.3557 224.6744 0008304 348.8281  11.2774 15.29306612 92949","mean_motion":15.29306612,"eccentricity":0.0008304,"inclination_deg":97.3557,"raan_deg":224.6744,"arg_perigee_deg":348.8281,"mean_anomaly_deg":11.2774,"bstar":0.00051478,"rev_number":9294,"period_min":94.160320023517,"perigee_km":472.19062372167,"apogee_km":483.57710317168,"semimajor_km":6856.0208634467,"source":"CELESTRAK","updated_at":"2026-05-25T13:38:02.344173Z"}}